STARLINK-4500 (53413 NORAD) Tracking and Keplerian Element Data

This shows tracking and keplerian element data for the satellite.

Feedback or suggestion? Click here.




ElementValue
Catalog53413
NameSTARLINK-4500
Epoch Orbit1631
Epoch Day325.13023766
Epoch Year2022
RAAN121.5938
Inclination53.2152
Eccentricity0.000216
Argument of Perigee45.5287
Mean Anonmoly314.5882
Mean Motion15.08847799
Decay Rate8.63E-06
L11 53413U 22097AB 22325.13023766 .00000863 00000+0 72312-4 0 9993
L22 53413 53.2152 121.5938 0002160 45.5287 314.5882 15.08847799 16315



Live tracking and technical data element details for STARLINK-4500 (NORAD 53413). STARLINK-4500 can be tracked NOW for your location showing map with azimuth and elevation plus other details from your city location.







IsCatalogInMostPopularTable: catalog: 53413, numindb: 5
Update: records affected: 1



GetName: 53413 STARLINK-4500

Hit Count: updated at: Thu, 08 Dec 2022 20:00:13 GMT